Location: Bard
(39.9279°N, 78.6592°W)
Time: 10:40:58
(UTC+00:00)

ARIANE 6 FM1 Upper Stage - Pass Details

Date: 14 December 2025
Orbit: 522 x 610 km, 62.0° (Epoch: 17 January)

Event Time Altitude Azimuth Distance (km) Brightness Sun altitude
Rises 11:17:39 0° 206° (SSW) 2,702 6.1 -13.2°
Reaches altitude 10° 11:19:53 10° 203° (SSW) 1,799 5.2 -12.8°
Maximum altitude 11:23:53 62° 123° (ESE) 603 3.1 -12.1°
Drops below altitude 10° 11:27:48 10° 42° (NE) 1,774 5.5 -11.3°
Sets 11:30:00 0° 40° (NE) 2,661 6.4 -11.0°
